Regional Weather Roundup
Issued by NWS

Home | Current Version | Previous Version | Graphics & Text | Print | Product List | Glossary On
Versions: 1 2 3 4 5 6 7 8 9 10 11 12 13 14 15 16 17 18 19 20 21 22 23 24 25 26 27 28 29 30 31 32 33 34 35 36 37 38 39 40 41 42 43 44 45 46 47 48 49 50
000
ASUS43 KMPX 280010
RWRMN
WEATHER ROUNDUP FOR MINNESOTA
NATIONAL WEATHER SERVICE TWIN CITIES/CHANHASSEN MN
700 PM CDT TUE SEP 27 2016


NOTE: "FAIR" INDICATES FEW OR NO CLOUDS BELOW 12,000 FEET WITH NO
SIGNIFICANT WEATHER AND/OR OBSTRUCTIONS TO VISIBILITY. N/A MEANS
CURRENT SKY AND/OR WEATHER CONDITIONS ARE NOT AVAILABLE.

MNZ060>063-068>070-280100-
   Twin Cities Metro

CITY           SKY/WX    TMP DP  RH WIND       PRES   REMARKS
TWIN CITIES    LGT RAIN  50  46  86 NW12      29.84S
6HR MIN TEMP:  50; 6HR MAX TEMP:  60; 6HR PCP:  0.04;

ST PAUL        LGT RAIN  50  47  89 NW12      29.85R
CRYSTAL        CLOUDY    50  45  83 NW12      29.84R
BLAINE         MOCLDY    52  50  93 NW10      29.83S
LAKEVILLE      DRIZZLE   48  46  93 NW10      29.84R
EDEN PRAIRIE   LGT RAIN  51  46  83 N12G20    29.84R
6HR MIN TEMP:  51; 6HR MAX TEMP:  63; 6HR PCP:  0.03;

LAKEVILLE      DRIZZLE   48  46  93 NW10      29.84R
SOUTH ST PAUL  LGT RAIN  51  46  84 NW9       29.84R
LAKE ELMO      LGT RAIN  50  46  87 NW8G16    29.84R
$$
MNZ001>005-007-008-013>017-022>024-027-028-280100-
   Northwest Minnesota

CITY           SKY/WX    TMP DP  RH WIND       PRES   REMARKS
BEMIDJI        DRIZZLE   45  44  93 N8        29.90R
HALLOCK        CLOUDY    54  46  76 N9        29.96R
ROSEAU         CLOUDY    52  43  71 N8        29.95R
WARROAD        CLOUDY    50  45  81 N7        29.94R
THIEF RVR FALL   N/A     50  43  77 N14       29.95R
CROOKSTON      CLOUDY    54  45  71 N10       29.95R
FOSSTON        CLOUDY    45  45 100 N6        29.94R
DETROIT LAKES  CLOUDY    50  43  76 N9        29.93R
MOORHEAD       CLEAR     55  43  62 N13G22    29.93R
PARK RAPIDS    CLOUDY    49  43  80 N14       29.89R
MAHNOMEN       CLOUDY    50  44  79 N13       29.92R
$$
MNZ006-009>011-018-025>026-280100-
   North Central Minnesota

CITY           SKY/WX    TMP DP  RH WIND       PRES   REMARKS
BAUDETTE       CLOUDY    50  44  80 N9        29.91R
FLAG ISLAND    CLOUDY    52  43  71 N14       29.93R
INTL FALLS     CLOUDY    50  45  83 N12       29.87R
6HR MIN TEMP:  47; 6HR MAX TEMP:  53; 6HR PCP:  0.01;

WASKISH        CLOUDY    48  46  93 N8        29.90R
BIG FORK       CLOUDY    48  45  87 CALM      29.87R
GRAND RAPIDS   CLOUDY    47  44  90 NW12      29.87R
CRANE LAKE     CLOUDY    48  46  93 VRB7      29.86R
ORR            CLOUDY    48  45  87 CALM      29.82R
COOK           CLOUDY    48  45  87 NW5       29.84R
WALKER         CLOUDY    46  42  88 NW8       29.90R
$$
MNZ012-019>021-037-280100-
   Northeast Minnesota

CITY           SKY/WX    TMP DP  RH WIND       PRES   REMARKS
DULUTH         CLOUDY    48  45  89 N14G24    29.78R
6HR MIN TEMP:  47; 6HR MAX TEMP:  50; 6HR PCP:  0.11;

ELY            CLOUDY    46  46 100 NW6       29.81R FOG
HIBBING        CLOUDY    47  45  93 NW9       29.83R
EVELETH        CLOUDY    50  46  84 N7        29.83R
DULUTH HARBOR  CLOUDY    52  46  82 N7        29.80R
TWO HARBORS    CLOUDY    54  46  76 N7G21     29.74R
SILVER BAY     CLOUDY    52  46  82 N9        29.74R
GRAND MARAIS     N/A     54  48  80 N10G25    29.71R
G MARAIS ARPRT CLOUDY    46  43  87 NW7       29.75R FOG
$$
MNZ029>031-032-039>041-046>048-054>057-064-280100-
   West Central Minnesota

CITY           SKY/WX    TMP DP  RH WIND       PRES   REMARKS
FERGUS FALLS   CLOUDY    54  43  66 NE12G21   29.92R
MORRIS         CLOUDY    61  41  48 N17G25    29.87R
ALEXANDRIA     CLOUDY    53  43  68 N14G22    29.90R
ELBOW LAKE     CLOUDY    55  43  64 N15G23    29.90R
WADENA         CLOUDY    48  43  81 N10       29.89R
GLENWOOD       CLOUDY    52  43  71 N10       29.89R
BENSON         CLOUDY    59  36  41 NE13G22   29.87R
ORTONVILLE     CLEAR     63  28  27 N9        29.87R
MADISON        CLOUDY    64  30  27 NW13      29.86R
WILLMAR        FAIR      57  45  62 N14       29.88R
$$
MNZ033>034-036-042>043-049>051-058-059-280100-
   Central Minnesota

CITY           SKY/WX    TMP DP  RH WIND       PRES   REMARKS
ST CLOUD       CLOUDY    49  47  93 NW10      29.86R
6HR MIN TEMP:  49; 6HR MAX TEMP:  56; 6HR PCP:  0.01;

SAUK CENTRE    DRIZZLE   49  45  85 N10       29.89R
PAYNESVILLE    CLOUDY    51  44  76 N10G17    29.88R
AITKIN         MOCLDY    48  43  81 NW8       29.84R
PINE RIVER     MOCLDY    48  45  87 N9        29.91R
BRAINERD       CLOUDY    48  46  93 N9        29.87R
STAPLES        CLOUDY    46  45  93 N10       29.88S
LONG PRAIRIE   CLOUDY    46  45  93 W8        29.88S
LITTLE FALLS   CLOUDY    48  45  87 NW7       29.87R
LITCHFIELD     CLOUDY    54  46  76 N12G21    29.87R
BUFFALO        DRIZZLE   50  45  84 NW8       29.87R
MAPLE LAKE     LGT RAIN  50  47  91 NW9       29.87S
HUTCHINSON     CLOUDY    54  46  72 N13G21    29.87R
$$
MNZ037-044-045-052-053-280100-
   East Central Minnesota

CITY           SKY/WX    TMP DP  RH WIND       PRES   REMARKS
PRINCETON      DRIZZLE   50  48  93 N5        29.85R
MORA           CLOUDY    46  43  87 N5        29.85R
CAMBRIDGE      CLOUDY    52  45  76 NW5       29.82R
MOOSE LAKE     CLOUDY    46  43  87 NW8       29.81R
HINCKLEY       CLOUDY    46  45  93 NW7       29.83R
CLOQUET        CLOUDY    46  45  93 NW13G18   29.80R
MCGREGOR       MOCLDY    46  45  93 NW7       29.85R
$$
MNZ071>073-080-081-089-090-097-098-280100-
   Southwest Minnesota

CITY           SKY/WX    TMP DP  RH WIND       PRES   REMARKS
MONTEVIDEO     CLOUDY    63  34  34 NE15G22   29.87R
GRANITE FALLS  CLOUDY    65  37  35 N10       29.86R
CANBY          CLEAR     63  30  29 NW9       29.87S
MARSHALL       CLEAR     65  29  25 N10G20    29.85R
REDWOOD FALLS  CLOUDY    61  35  37 N9        29.84R
OLIVIA         CLOUDY    59  37  44 N9G17     29.84R
PIPESTONE      CLEAR     66  34  30 N10       29.87R
WINDOM         CLOUDY    64  28  25 NW10      29.83S
WORTHINGTON    CLOUDY    62  42  47 NW9       29.85S
JACKSON        CLOUDY    64  25  22 NW8       29.83F
TRACY          PTCLDY    66  32  27 NW13G20   29.85R
SLAYTON        CLEAR     63  32  31 N10       29.86R
$$
MNZ065>067-074>077-082>085-091>093-280100-
   South Central Minnesota

CITY           SKY/WX    TMP DP  RH WIND       PRES   REMARKS
MANKATO        CLOUDY    59  37  44 N15       29.83R
NEW ULM        CLOUDY    59  36  41 N10       29.83R
ST JAMES       CLOUDY    63  34  34 NW7       29.83R
GLENCOE        LGT RAIN  54  47  76 N13G18    29.85R
FARIBAULT      CLOUDY    54  45  71 N12G22    29.84R
OWATONNA       LGT RAIN  55  41  58 N14       29.82R
WASECA         CLOUDY    59  36  41 NW13G20   29.83R
ALBERT LEA     CLOUDY    61  36  39 N9        29.80S
$$
MNZ078>079-086>088-094>096-280100-
   Southeast Minnesota

CITY           SKY/WX    TMP DP  RH WIND       PRES   REMARKS
ROCHESTER      LGT RAIN  54  44  69 N14       29.82R
6HR MIN TEMP:  54; 6HR MAX TEMP:  65; 6HR PCP: TRACE;

RED WING       LGT RAIN  52  48  87 NW6       29.82S
DODGE CENTER   LGT RAIN  54  43  66 NE14G20   29.82R
WINONA         RAIN      50  46  87 NW8       29.82R
AUSTIN         CLOUDY    57  37  47 N6        29.80R
PRESTON        CLOUDY    56  37  47 N15G24    29.80R
$$
ABBREVIATIONS USED IN REMARKS
   TC - TEMPERATURES IN CELSIUS
  WCI - WIND CHILL INDEX
   HX - HEAT INDEX
  VSB - VISIBILITY
$$



USA.gov is the U.S. government's official web portal to all federal, state and local government web resources and services.